Date String (YYYY-MM-DD hh:mm:ss) UTC,Instrument flags,Ambient pressure (hPa),Sample flow (lpm),Bypass flow (lpm),Sample temperature (°C),Ambient temperature (°C),ASC tube jacket temperature (°C),LED temperature (°C),Box temperature (°C),Sample RH (%),Span deviation,Mass concentration (μg/m³),Mass concentration (μg/m³),Mass concentration (μg/m³)
DateTimeUTC,F1_M11,P_M11,Q1_M11,Q2_M11,T1_M11,T2_M11,T3_M11,T4_M11,T5_M11,U1_M11,ZSPAN_M11,X2_M11,X0_M11,X1_M11
2022-04-26 04:00:00,,0832.9,5.00,0.00,26.6,25.7,00.0,35.6,28.4,13.1,0000.0,0004.46,0008.70,0003.87
2022-04-26 04:01:00,,0832.9,5.00,0.00,26.6,25.7,00.0,35.6,28.4,13.0,0000.0,0004.47,0008.84,0003.88
2022-04-26 04:02:00,,0832.9,5.00,0.00,26.6,25.7,00.0,35.6,28.4,13.1,0000.0,0004.52,0008.66,0003.90
2022-04-26 04:03:00,,0832.9,5.01,0.00,26.6,25.7,00.0,35.6,28.3,13.1,0000.0,0004.54,0008.54,0003.92
2022-04-26 04:04:00,,0832.9,5.00,0.00,26.6,25.7,00.0,35.6,28.3,13.1,0000.0,0004.55,0008.65,0003.94
2022-04-26 04:05:00,,0832.9,5.00,0.00,26.6,25.7,00.0,35.6,28.3,13.1,0000.0,0004.58,0008.73,0003.96
2022-04-26 04:06:00,,0832.8,5.00,0.00,26.6,25.6,00.0,35.6,28.3,13.1,0000.0,0004.61,0009.41,0003.98
2022-04-26 04:07:00,,0832.9,5.00,0.00,26.6,25.6,00.0,35.6,28.3,13.1,0000.0,0004.61,0009.76,0003.97
2022-04-26 04:08:00,,0832.9,4.99,0.00,26.6,25.6,00.0,35.6,28.4,13.1,0000.0,0004.63,0010.30,0003.98
2022-04-26 04:09:00,,0832.9,5.00,0.00,26.6,25.6,00.0,35.5,28.3,13.1,0000.0,0004.65,0010.88,0004.00
2022-04-26 04:10:00,,0832.8,5.01,0.00,26.6,25.6,00.0,35.5,28.3,13.1,0000.0,0004.67,0011.30,0004.02
2022-04-26 04:11:00,,0832.8,5.00,0.00,26.6,25.6,00.0,35.5,28.3,13.1,0000.0,0004.69,0012.08,0004.04
2022-04-26 04:12:00,,0832.8,5.00,0.00,26.5,25.6,00.0,35.5,28.3,13.1,0000.0,0004.70,0012.00,0004.04
2022-04-26 04:13:00,,0832.8,4.99,0.00,26.5,25.6,00.0,35.5,28.3,13.1,0000.0,0004.68,0011.94,0004.05
2022-04-26 04:14:00,,0832.8,4.99,0.00,26.5,25.6,00.0,35.5,28.3,13.1,0000.0,0004.64,0011.84,0004.05
2022-04-26 04:15:00,,0832.9,5.02,0.00,26.5,25.6,00.0,35.5,28.3,13.2,0000.0,0004.62,0011.13,0004.05
2022-04-26 04:16:00,,0832.9,5.01,0.00,26.5,25.6,00.0,35.5,28.3,13.2,0000.0,0004.62,0011.44,0004.06
2022-04-26 04:17:00,,0832.9,5.00,0.00,26.5,25.5,00.0,35.5,28.2,13.2,0000.0,0004.66,0011.60,0004.06
2022-04-26 04:18:00,,0832.8,4.99,0.00,26.5,25.6,00.0,35.5,28.2,13.2,0000.0,0004.70,0011.19,0004.08
2022-04-26 04:19:00,,0832.8,5.00,0.00,26.5,25.5,00.0,35.5,28.3,13.2,0000.0,0004.71,0011.01,0004.09
2022-04-26 04:20:00,,0832.8,4.99,0.00,26.5,25.5,00.0,35.5,28.2,13.2,0000.0,0004.71,0011.12,0004.09
2022-04-26 04:21:00,,0832.9,5.00,0.00,26.4,25.5,00.0,35.5,28.2,13.2,0000.0,0004.70,0011.71,0004.09
2022-04-26 04:22:00,,0832.9,5.00,0.00,26.4,25.5,00.0,35.4,28.2,13.3,0000.0,0004.68,0011.21,0004.10
2022-04-26 04:23:00,,0832.8,4.99,0.00,26.4,25.5,00.0,35.4,28.2,13.3,0000.0,0004.70,0010.95,0004.11
2022-04-26 04:24:00,,0832.8,5.01,0.00,26.4,25.5,00.0,35.4,28.2,13.3,0000.0,0004.74,0011.60,0004.12
2022-04-26 04:25:00,,0832.7,5.00,0.00,26.4,25.5,00.0,35.4,28.1,13.3,0000.0,0004.82,0012.14,0004.14
2022-04-26 04:26:00,,0832.7,5.00,0.00,26.4,25.5,00.0,35.4,28.2,13.3,0000.0,0004.84,0012.23,0004.14
2022-04-26 04:27:00,,0832.7,5.00,0.00,26.4,25.5,00.0,35.4,28.1,13.3,0000.0,0004.88,0012.02,0004.14
2022-04-26 04:28:00,,0832.7,5.00,0.00,26.4,25.5,00.0,35.4,28.1,13.4,0000.0,0004.87,0011.79,0004.14
2022-04-26 04:29:00,,0832.7,5.00,0.00,26.4,25.4,00.0,35.4,28.1,13.4,0000.0,0004.82,0011.82,0004.14
2022-04-26 04:30:00,,0832.8,5.02,0.00,26.4,25.4,00.0,35.4,28.1,13.4,0000.0,0004.84,0011.77,0004.14
2022-04-26 04:31:00,,0832.7,5.00,0.00,26.3,25.4,00.0,35.4,28.1,13.4,0000.0,0004.83,0011.30,0004.15
2022-04-26 04:32:00,,0832.8,5.00,0.00,26.3,25.4,00.0,35.4,28.1,13.4,0000.0,0004.83,0010.25,0004.15
2022-04-26 04:33:00,,0832.7,5.00,0.00,26.3,25.4,00.0,35.4,28.1,13.4,0000.0,0004.86,0010.46,0004.16
2022-04-26 04:34:00,,0832.7,5.00,0.00,26.3,25.4,00.0,35.3,28.1,13.4,0000.0,0004.88,0010.57,0004.16
2022-04-26 04:35:00,,0832.7,4.99,0.00,26.3,25.4,00.0,35.3,28.1,13.3,0000.0,0004.86,0010.21,0004.16
2022-04-26 04:36:00,,0832.7,5.00,0.00,26.3,25.4,00.0,35.3,28.1,13.3,0000.0,0004.81,0009.57,0004.15
2022-04-26 04:37:00,,0832.7,5.00,0.00,26.3,25.4,00.0,35.3,28.1,13.2,0000.0,0004.81,0009.47,0004.16
2022-04-26 04:38:00,,0832.7,5.00,0.00,26.3,25.4,00.0,35.3,28.1,13.3,0000.0,0004.78,0009.38,0004.17
2022-04-26 04:39:00,,0832.7,4.99,0.00,26.3,25.4,00.0,35.3,28.0,13.3,0000.0,0004.73,0009.36,0004.16
2022-04-26 04:40:00,,0832.6,5.00,0.00,26.3,25.4,00.0,35.3,28.0,13.3,0000.0,0004.70,0010.10,0004.16
2022-04-26 04:41:00,,0832.6,5.00,0.00,26.3,25.3,00.0,35.3,28.0,13.4,0000.0,0004.67,0010.42,0004.16
2022-04-26 04:42:00,,0832.6,5.00,0.00,26.2,25.3,00.0,35.3,28.0,13.4,0000.0,0004.66,0010.11,0004.15
2022-04-26 04:43:00,,0832.6,5.00,0.00,26.2,25.3,00.0,35.3,28.0,13.4,0000.0,0004.66,0010.09,0004.15
2022-04-26 04:44:00,,0832.6,5.01,0.00,26.2,25.3,00.0,35.2,28.0,13.4,0000.0,0004.64,0009.87,0004.14
2022-04-26 04:45:00,,0832.6,5.00,0.00,26.2,25.3,00.0,35.2,28.0,13.4,0000.0,0004.62,0009.71,0004.14
2022-04-26 04:46:00,,0832.5,5.02,0.00,26.2,25.3,00.0,35.2,28.0,13.4,0000.0,0004.61,0009.97,0004.12
2022-04-26 04:47:00,,0832.5,5.00,0.00,26.2,25.3,00.0,35.2,28.0,13.4,0000.0,0004.65,0010.58,0004.13
2022-04-26 04:48:00,,0832.6,5.00,0.00,26.2,25.3,00.0,35.2,28.0,13.4,0000.0,0004.62,0010.55,0004.10
2022-04-26 04:49:00,,0832.5,5.00,0.00,26.2,25.3,00.0,35.2,28.0,13.4,0000.0,0004.63,0010.61,0004.09
2022-04-26 04:50:00,,0832.5,5.00,0.00,26.2,25.3,00.0,35.2,27.9,13.4,0000.0,0004.67,0010.63,0004.10
2022-04-26 04:51:00,,0832.5,5.00,0.00,26.2,25.3,00.0,35.2,28.0,13.5,0000.0,0004.68,0010.34,0004.09
2022-04-26 04:52:00,,0832.5,5.00,0.00,26.2,25.3,00.0,35.2,27.9,13.5,0000.0,0004.69,0009.90,0004.08
2022-04-26 04:53:00,,0832.5,4.99,0.00,26.2,25.2,00.0,35.2,27.9,13.5,0000.0,0004.67,0009.90,0004.06
2022-04-26 04:54:00,,0832.5,5.02,0.00,26.2,25.2,00.0,35.2,27.9,13.6,0000.0,0004.63,0009.87,0004.05
2022-04-26 04:55:00,,0832.5,4.99,0.00,26.1,25.2,00.0,35.2,27.9,13.6,0000.0,0004.65,0009.85,0004.04
2022-04-26 04:56:00,,0832.5,4.99,0.00,26.1,25.2,00.0,35.2,27.9,13.6,0000.0,0004.63,0010.26,0004.03
2022-04-26 04:57:00,,0832.5,4.99,0.00,26.1,25.2,00.0,35.1,27.9,13.6,0000.0,0004.63,0010.42,0004.02
2022-04-26 04:58:00,,0832.5,5.00,0.00,26.1,25.2,00.0,35.1,27.9,13.6,0000.0,0004.61,0009.91,0004.00
2022-04-26 04:59:00,,0832.5,5.01,0.00,26.1,25.2,00.0,35.1,27.9,13.7,0000.0,0004.58,0009.92,0003.99
